Location: Asheville, NC
(35.6000°N, 82.5500°W)
Time: 14:36:02
(UTC-04:00)

Vanguard 1 - Pass Details

Date: 08 December 2017
Orbit: 650 x 3833 km, 34.2° (Epoch: 19 April)

Event Time Altitude Azimuth Distance (km) Brightness Sun altitude
Rises 10:55:21 0° 240° (WSW) 7,776 14.7 28.1°
Reaches altitude 10° 11:01:07 10° 238° (WSW) 6,488 14.4 28.5°
Maximum altitude 11:20:03 66° 162° (SSE) 2,508 13.2 29.8°
Drops below altitude 10° 11:30:21 10° 83° (E) 3,764 13.2 30.3°
Sets 11:32:47 0° 80° (E) 4,449 13.5 30.5°
